SCP
0 0 0 1 1 1 1 1 2 2 2 3 3 3 3 3 3 3 4 4 3 3 3 3 2 2 2 2 2 2 2 2 2 1 1 1 1 1 1 1 1 1 2
0 0 1 1 1 1 1 2 3 3 3 3 4 4 4 4 4 4 4 4 3 3 3 2 2 2 2 2 2 2 2 2 1 1 1 1 1 1 1 1 1 1 1
0 0 1 1 1 1 1 2 3 4 4 4 5 5 5 5 4 4 5 4 4 3 3 2 2 2 2 2 2 2 2 1 1 1 1 1 1 1 1 1 1 1 1
0 0 1 1 1 1 1 3 4 5 5 5 5 5 5 5 5 5 5 5 4 3 3 2 2 2 2 2 2 2 1 1 1 1 1 1 1 1 1 1 1 1 1
0 0 1 1 1 1 2 3 4 5 5 6 6 6 6 6 5 6 6 5 4 3 2 2 2 2 3 2 2 1 1 1 1 1 1 1 1 1 1 1 1 2 2
0 0 1 1 1 1 2 3 3 3 4 5 5 6 6 6 6 6 6 5 4 3 2 2 2 3 3 2 1 1 1 1 1 0 1 1 1 1 1 1 2 2 2
0 0 1 1 1 1 2 2 2 2 3 4 5 6 6 6 6 6 5 4 3 2 2 2 3 3 2 2 1 1 1 1 0 0 1 1 1 1 1 1 1 1 1
1 0 1 1 1 1 1 2 2 2 3 4 5 5 6 6 6 6 5 3 2 2 2 2 3 3 2 2 1 1 1 1 0 0 1 1 1 1 1 1 1 1 1
1 1 0 0 0 1 2 3 3 4 5 5 5 6 6 6 6 5 3 2 1 1 2 3 3 3 3 2 1 1 1 1 0 0 0 1 1 1 1 1 1 1 1
1 1 0 0 0 1 2 3 4 5 6 6 6 6 6 6 5 3 2 1 1 1 2 3 3 3 2 2 1 1 1 1 0 0 0 1 1 1 1 1 1 1 2
1 1 0 0 0 0 1 2 3 4 5 5 6 5 5 3 2 2 1 1 1 1 2 3 3 3 2 1 1 1 1 0 0 0 0 1 1 1 1 1 1 1 1
2 1 1 0 0 0 1 1 2 2 3 3 3 3 2 1 1 1 1 1 1 1 2 2 2 2 1 1 1 1 1 1 0 0 0 0 1 1 1 1 1 1 1
2 2 1 1 1 0 0 0 0 0 1 1 1 1 0 0 0 1 1 1 1 1 1 2 1 1 1 1 1 1 1 1 1 1 1 1 1 1 1 1 1 1 1
2 2 2 2 1 0 0 0 0 0 0 0 0 0 0 0 0 0 1 1 1 1 1 1 1 1 1 1 1 1 2 2 2 1 1 1 1 1 1 1 1 1 1
1 1 2 2 1 1 0 0 0 0 0 0 0 0 0 0 0 0 0 0 0 1 1 1 1 1 1 1 1 2 2 2 2 2 1 1 1 1 1 1 1 1 1
1 1 1 1 1 1 0 0 0 0 0 1 1 1 0 0 0 0 0 0 0 0 0 0 1 1 1 1 1 2 2 2 2 2 1 1 1 1 1 1 1 2 2
1 1 1 1 1 1 0 0 0 0 0 1 1 1 0 0 0 0 0 0 0 0 0 0 1 1 1 1 1 1 2 2 2 2 1 1 1 1 1 1 1 1 2
1 2 2 1 1 1 1 1 1 0 0 0 0 0 0 0 0 0 0 0 0 0 0 1 1 1 1 1 1 1 1 1 1 1 1 1 0 0 1 1 1 1 1
2 2 2 1 1 1 1 1 1 1 1 0 0 0 0 0 0 0 0 0 0 0 0 1 1 1 1 1 1 1 1 1 1 1 1 0 0 0 0 0 0 1 1
2 2 1 1 1 1 1 1 1 1 1 0 0 0 1 1 0 0 0 0 0 0 0 1 1 1 1 1 1 1 1 1 1 0 0 1 1 0 0 0 0 0 0
2 2 1 1 1 1 1 1 1 1 1 0 0 0 1 1 0 0 0 0 0 0 0 0 0 0 1 1 1 1 1 1 0 0 0 1 1 1 1 0 0 0 0
2 1 1 1 1 1 1 1 1 1 1 0 0 0 0 1 1 0 0 0 0 0 0 0 0 0 1 1 1 1 1 1 1 1 1 1 1 1 1 1 0 0 0
2 1 1 1 1 1 1 1 1 1 1 1 0 0 0 0 1 1 1 1 1 1 1 1 1 1 1 1 2 2 2 2 2 1 1 1 1 1 1 1 1 1 0
2 1 1 1 1 1 0 1 1 1 1 1 1 0 0 0 1 1 1 1 1 1 1 1 1 1 1 2 2 2 3 3 3 2 2 1 1 1 1 1 1 1 1
1 1 1 1 1 1 1 1 1 1 1 1 1 1 0 0 0 1 1 1 1 1 1 1 1 1 1 2 2 2 2 3 3 2 1 1 1 1 1 1 1 1 1
1 1 1 1 1 1 1 1 1 1 1 1 1 1 1 1 1 1 1 1 1 1 1 1 1 1 1 1 1 1 1 2 2 1 1 1 0 0 1 1 1 1 1
Wind_Speed
1 1 1 4 6 7 8 8 9 9 10 11 11 12 12 12 13 13 14 15 15 15 16 17 17 17 17 17 17 18 17 17 17 17 16 16 16 15 15 16 14 11 15
1 0 2 4 6 7 7 8 8 9 10 11 11 12 12 12 13 13 14 15 15 15 16 16 16 17 17 16 17 17 17 17 16 16 15 14 15 15 15 14 13 9 14
2 1 2 5 6 7 7 8 8 9 10 11 11 11 12 12 13 13 14 14 15 15 15 16 15 16 16 16 17 17 16 15 15 14 13 8 9 13 13 13 13 13 13
2 1 2 5 5 6 7 7 8 9 10 10 11 11 12 12 13 14 14 14 14 15 15 15 15 15 15 15 15 15 15 15 14 13 7 6 6 11 12 12 12 12 12
2 1 1 5 5 6 6 7 8 9 10 10 11 11 11 12 13 13 13 14 14 14 14 14 14 14 14 13 13 13 14 14 13 10 6 5 5 9 11 11 11 12 12
2 1 1 5 5 6 6 7 8 9 9 10 11 11 11 12 12 13 13 13 13 13 13 13 13 12 12 12 12 13 12 13 10 7 6 5 4 9 10 11 11 11 11
2 1 1 5 5 6 6 7 8 8 9 10 11 11 11 11 11 11 12 12 12 12 12 12 12 11 11 11 11 11 11 11 7 6 5 4 4 8 10 10 10 10 10
2 1 1 4 5 5 6 7 7 8 9 9 10 10 10 10 10 11 12 12 12 11 11 10 10 10 9 9 9 10 10 10 8 6 5 4 6 8 10 10 10 10 10
2 2 2 2 2 4 6 6 7 8 8 9 9 9 10 10 10 10 10 10 11 10 10 9 9 8 8 8 9 9 9 9 6 4 5 3 6 8 9 9 9 9 9
2 2 2 2 3 2 2 5 6 7 7 8 8 8 8 8 8 9 8 8 9 9 8 8 7 7 7 7 8 9 8 7 5 4 3 4 7 8 8 8 9 9 9
1 1 1 1 2 2 1 3 4 5 6 6 5 7 6 4 4 4 6 7 8 8 8 7 6 6 6 6 6 7 6 3 4 3 2 5 7 8 8 8 9 9 9
2 1 0 0 1 0 1 2 2 2 3 3 3 3 3 3 2 3 4 6 7 7 6 6 6 5 4 3 4 5 2 3 3 2 3 6 7 8 8 8 8 8 8
3 2 2 1 1 1 1 1 1 1 2 2 2 3 3 2 2 2 2 2 3 4 3 4 4 2 2 2 2 2 2 2 2 2 3 6 6 8 8 7 7 7 7
2 3 3 2 2 1 1 1 1 1 1 1 1 2 2 1 1 1 1 2 2 1 2 2 1 2 2 2 2 2 2 1 1 1 2 5 6 7 8 7 7 7 7
3 3 2 2 2 2 1 1 1 1 0 0 1 1 2 1 1 1 1 1 1 1 1 1 1 1 1 1 1 2 3 2 2 2 1 5 6 6 7 7 8 7 7
4 3 2 2 3 2 2 1 1 1 1 0 0 1 2 2 2 1 1 1 1 1 1 1 1 1 1 1 1 1 2 2 2 2 1 3 6 6 6 7 8 7 7
4 3 3 3 2 2 2 1 1 1 1 1 0 1 1 2 2 2 1 1 1 1 1 1 1 1 1 1 1 1 1 2 2 2 2 1 2 4 6 7 7 7 7
4 3 3 3 3 3 2 1 1 1 1 0 0 1 1 2 2 2 2 1 1 1 1 1 1 1 1 1 1 1 1 1 2 2 2 1 1 1 3 6 7 7 8
4 4 3 3 3 3 2 1 1 1 1 0 0 1 1 2 2 2 1 1 1 2 1 1 2 2 2 1 1 1 1 1 1 2 2 2 2 1 1 2 5 5 6
4 4 4 3 3 3 2 2 1 1 1 1 0 0 1 1 2 2 2 2 2 2 1 1 2 2 2 2 2 2 2 1 1 1 2 1 1 2 2 2 2 3 5
4 4 3 3 3 3 2 2 1 0 0 0 0 0 1 2 2 2 2 2 2 2 2 2 2 2 2 2 2 2 2 2 2 1 0 0 1 1 1 1 1 1 1
5 4 4 4 3 3 2 2 2 1 1 0 0 1 0 1 2 2 2 2 2 2 2 2 3 2 1 1 2 2 1 2 2 2 2 1 1 1 0 0 0 0 1
5 6 5 4 4 3 3 2 2 2 1 1 1 1 0 1 2 2 2 2 2 2 2 2 3 3 2 1 1 2 2 1 1 2 2 2 2 1 1 1 1 0 0
6 5 5 4 4 3 3 3 3 2 2 1 1 0 0 0 1 2 2 2 2 2 2 2 2 2 3 2 1 0 1 2 2 0 1 1 2 2 1 1 1 1 1
6 5 5 4 3 3 4 4 4 3 2 1 1 0 0 0 1 1 2 2 2 2 2 2 2 2 2 2 2 1 1 1 1 2 1 0 1 1 1 1 1 1 1
5 5 5 4 3 3 4 4 4 4 4 3 2 1 1 0 0 0 1 1 2 2 2 2 2 3 2 2 2 2 2 2 2 2 2 1 0 1 1 1 1 1 1
Wind_Direction
275 297 112 88 82 79 78 76 77 85 92 95 95 97 97 101 104 105 104 102 105 107 113 117 120 121 121 121 121 120 120 123 123 123 123 122 121 121 118 117 115 113 115
157 284 123 97 88 82 80 79 78 84 93 97 97 98 98 99 102 105 107 107 107 107 109 115 118 120 121 120 120 120 121 123 124 124 123 122 122 121 118 119 119 122 122
102 85 120 106 94 88 86 85 84 89 95 97 99 100 99 100 103 108 109 111 109 107 108 109 113 116 116 118 121 121 121 122 121 118 114 107 116 121 123 125 125 124 124
102 77 116 114 99 92 90 90 90 94 100 101 100 101 100 102 104 112 113 112 109 107 109 114 113 114 115 117 119 121 121 120 118 114 104 106 116 125 127 127 126 125 126
95 59 131 116 104 97 97 96 96 97 101 104 105 106 106 106 105 109 113 114 113 113 113 114 113 114 116 117 121 122 121 121 118 110 105 102 108 129 130 128 128 127 127
103 59 137 119 108 102 100 103 104 104 106 107 109 108 109 109 106 109 113 113 114 116 118 117 117 119 120 120 122 123 123 121 114 108 107 110 118 136 135 132 132 130 128
120 78 114 117 108 104 106 108 107 107 109 110 110 111 111 113 113 114 115 112 112 114 115 117 119 121 121 124 126 126 126 125 116 115 115 119 132 140 139 136 135 134 133
116 82 74 120 114 109 112 111 109 110 112 110 109 110 109 108 110 114 117 116 115 115 116 116 116 120 119 123 130 131 132 131 125 125 123 129 143 145 144 141 141 141 141
91 76 42 49 86 113 115 116 114 112 113 114 110 108 109 109 110 113 117 119 119 121 121 120 120 120 121 120 128 133 135 133 123 130 136 139 149 152 151 150 150 149 147
83 68 52 41 43 51 81 118 118 114 112 113 113 112 109 108 111 113 117 120 122 123 125 124 120 120 119 119 128 134 134 126 126 133 137 153 157 159 157 155 157 156 155
132 48 51 57 51 54 65 112 112 115 110 104 106 109 96 74 78 98 120 125 122 122 123 121 117 114 111 114 127 129 118 116 128 136 147 163 168 169 166 165 167 166 165
197 204 193 149 129 73 92 75 58 69 73 74 74 82 81 78 76 94 111 121 122 120 116 113 107 100 88 83 105 111 106 125 134 150 167 173 176 173 169 170 171 173 170
200 205 205 198 177 144 85 90 67 63 66 68 75 85 87 76 65 58 56 74 79 87 78 81 75 73 83 88 89 105 129 135 149 162 177 176 175 173 171 171 173 174 175
183 211 211 191 183 183 136 95 88 85 82 82 85 94 96 87 78 75 73 70 68 75 80 77 77 73 74 86 110 133 152 151 152 167 188 182 178 179 178 175 176 177 174
190 211 205 186 190 182 149 135 116 115 131 143 115 123 132 134 137 114 99 93 92 98 102 98 86 76 62 67 125 155 169 169 169 177 190 188 185 186 186 183 183 187 186
193 202 187 183 189 168 155 154 160 164 168 117 126 179 165 159 157 144 137 130 132 134 138 129 126 88 60 73 100 158 170 168 168 176 193 205 200 196 196 197 197 199 198
184 184 180 181 163 154 161 172 157 155 137 128 149 181 165 162 161 154 149 162 180 144 129 116 108 104 110 104 104 127 152 164 164 179 186 201 216 212 210 211 210 208 207
164 164 180 174 150 155 156 148 127 124 128 123 102 129 154 160 157 151 156 181 165 132 130 130 120 107 99 98 84 69 97 135 163 169 173 183 199 230 229 222 216 213 215
166 160 160 153 148 154 146 115 98 95 97 72 76 116 147 152 154 151 167 174 146 135 141 152 122 130 129 117 106 70 72 140 175 173 173 187 195 217 240 251 237 226 228
162 156 155 149 145 137 118 93 68 59 51 51 54 162 154 152 151 149 157 158 144 139 132 129 121 112 133 133 90 57 40 46 85 178 203 202 204 208 214 240 262 254 245
157 156 163 161 162 144 126 128 119 120 4 18 331 285 162 165 159 152 156 153 147 156 162 146 130 117 107 114 94 58 32 37 51 37 57 149 202 215 199 218 245 257 266
172 174 177 181 175 171 156 145 145 137 133 137 355 28 123 154 159 161 158 159 156 158 153 146 141 130 139 136 130 111 38 9 23 33 38 61 41 60 74 97 142 206 247
183 187 190 191 186 180 161 125 103 83 58 49 24 355 343 162 168 162 162 162 162 167 176 174 169 162 169 176 143 148 152 196 325 10 34 45 49 52 36 44 62 95 215
196 187 182 183 184 176 161 157 160 162 177 202 191 241 315 174 168 165 167 168 173 174 182 196 179 173 162 173 156 132 155 156 160 83 8 29 41 38 27 28 27 28 8
190 181 178 172 183 178 168 171 166 171 180 165 140 184 307 324 190 179 174 173 178 185 190 193 177 171 169 171 170 158 134 109 151 168 228 333 32 17 20 26 31 23 10
183 179 172 172 191 182 174 175 175 179 178 169 180 201 238 298 309 175 162 171 180 183 191 191 178 176 181 179 176 171 170 169 179 176 196 224 298 339 10 30 28 24 30